Kosmos-1794

operational
NORAD ID: 17138 Int'l Des: 1986-092 Owner: UNKS Country: SU
LEOCIRCULAR

Über Kosmos-1794

Beschreibung wird geladen...

Live-Position

3D-Globus wird geladen...

Nächste Überflüge

Höhenverlauf

Altitude vs Time

uPlot chart will show altitude changes over time

Zweizeiliger Elementsatz

1 17138U 86092A 26062.50108117 -.00000007 00000-0 61000-4 0 9993
2 17138 74.0105 251.1224 0020743 106.8908 281.3732 12.45668987786142
Epoch: 3. März 2026 • Age: 31 hours

Aktueller Status

Höhe 1493.4 km
Geschwindigkeit 7.11 km/s
Subsatellitenpunkt -8.74°S, 21.02°W
Startdatum 21. Nov. 1986
Alter 39.2 years
Typ other

Technische Details

Klassifizierung Payload
Masse 60.00 kg
Trockenmasse 60.00 kg
Gesamtmasse 60.00 kg
Länge 0.80 m
Durchmesser 0.80 m
Spannweite 0.80 m
Form Poly
Hersteller NPOPM
Bus-Typ Strela-1 11F625
Phasenstatus In Orbit
Besitzer/Staat UNKS/SU

Große Konstellationen

Loading constellations...